Regional Weather Roundup
Issued by NWS Green Bay, WI

Home | Current Version | Previous Version | Text Only | Print | Product List | Glossary On
Versions: 1 2 3 4 5 6 7 8 9 10 11 12 13 14 15 16 17 18 19 20 21 22 23 24 25 26 27 28 29 30 31 32 33 34 35 36 37 38 39 40 41 42 43 44 45 46 47 48 49 50
000
ASUS43 KGRB 300810
RWRGRB

NORTH-CENTRAL AND NORTHEAST WISCONSIN REGIONAL WEATHER ROUNDUP
NATIONAL WEATHER SERVICE GREEN BAY WI
300 AM CDT WED JUL 30 2014

WIZ005-009-010>012-018-019-300900-
NORTH CENTRAL WISCONSIN

CITY           SKY/WX    TMP DP  RH WIND       PRES   REMARKS
IRONWOOD       NOT AVBL
MANITOWISH WTR MOCLDY    47  47 100 CALM      30.05S FOG
ARBOR VITAE    CLEAR     52  49  92 CALM      30.05S
EAGLE RIVER    FOG       52  52 100 CALM      30.04S VSB 1/4
LAND O LAKES   CLOUDY    52  52  99 CALM      30.05F
RHINELANDER    CLEAR     51  50  96 CALM      30.05S
PHILLIPS       CLOUDY    54  54 100 NE7       30.05S
ANTIGO         CLEAR     50  50  99 N5        30.03F
TOMAHAWK       FOG       46  46  97 CALM      30.05S VSB 1/4
MERRILL        FOG       52  52 100 CALM      30.04S VSB 1/4
$$

WIZ013-073-300900-
NORTHEAST WISCONSIN

CITY           SKY/WX    TMP DP  RH WIND       PRES   REMARKS
IRON MOUNTAIN  CLEAR     48  47  96 NW3       30.00F
MARINETTE      CLEAR     55  54  94 MISG      29.99F
OCONTO         CLEAR     56  56 100 CALM      29.99S
$$

WIZ017-030-035>037-045-300900-
CENTRAL WISCONSIN

CITY           SKY/WX    TMP DP  RH WIND       PRES   REMARKS
MEDFORD        FOG       53  53  99 N3        30.04S VSB 3/4
WAUSAU         CLEAR     55  54  96 NW6       30.02R
MOSINEE        CLEAR     52  52 100 NW6       30.04S
MARSHFIELD     CLEAR     55  54  96 NW6       30.03S
WISC RAPIDS    CLEAR     56  55  97 NW6       30.04S
STEVENS POINT  CLEAR     54  52  95 CALM      30.03S
WAUPACA        CLEAR     59  56  88 CALM      30.01S
SHAWANO        MOCLDY    61  58  90 N7        30.00F
CLINTONVILLE   CLEAR     57  55  94 CALM      30.00S
$$

WIZ038-039-048-051-300900-
FOX VALLEY

CITY           SKY/WX    TMP DP  RH WIND       PRES   REMARKS
NWS GREEN BAY  CLOUDY    58  57  97 N5        29.99S
APPLETON       CLOUDY    55  55 100 NW6       30.00S
OSHKOSH        CLEAR     58  56  93 NW7       29.99S
FOND DU LAC    CLEAR     55  53  93 CALM      29.99F
$$

WIZ022-050-052-300900-
EAST CENTRAL WISCONSIN

CITY           SKY/WX    TMP DP  RH WIND       PRES   REMARKS
STURGEON BAY   CLEAR     57  54  88 NE5       30.00S
MANITOWOC      MOCLDY    59  57  93 MISG      29.99S
SHEBOYGAN      CLEAR     57  55  93 NW3       29.98S
$$

LMZ563-521-522-541>543-300900-
LAKESHORE

STATION/POSITION TIME  TEMP    WIND        PRES    VSBY  WAVE
                       AIR SEA DIR/SP/G                  HT/PER
                 (UTC) (F)     (DEG/KT/KT) (MB)    (MI)  (FT/S)
SHEBOYGAN LKSHOR 0800   61     300/  9/ 11 1015.2S
KEWAUNEE LKSHORE 0800   59      10/  3/  6 1016.1F
ALGOMA MARINA    0700          350/  5/  6   N/A
NORTHPORT PIER   0800   57      CALM  /  2 1015.6S
N MID LAKE BUOY  0800   56 53  330/  6/  6 1014.7F         0
S GREEN BAY BUOY 0700   64 66   40/ 12     1016.3R
SISTER BAY LKSHO 0800   56        CALM       N/A
CHAMBERS ISLAND  0800   62     330/  7/  9 1015.9S
MENOMINEE LKSHOR 0800   60     350/  7/  8 1016.3S
$$



USA.gov is the U.S. government's official web portal to all federal, state and local government web resources and services.